Regional Weather Roundup
Issued by NWS

Home | Current Version | Previous Version | Graphics & Text | Print | Product List | Glossary On
Versions: 1 2 3 4 5 6 7 8 9 10 11 12 13 14 15 16 17 18 19 20 21 22 23 24 25 26 27 28 29 30 31 32 33 34 35 36 37 38 39 40 41 42 43 44 45 46 47 48 49 50
000
ASUS43 KDMX 181501
RWRIA

WEATHER ROUNDUP FOR IOWA
NATIONAL WEATHER SERVICE DES MOINES IA
1000 AM CDT FRI AUG 18 2017

NOTE: "FAIR" INDICATES FEW OR NO CLOUDS BELOW 12,000 FEET WITH NO
SIGNIFICANT WEATHER AND/OR OBSTRUCTIONS TO VISIBILITY.

* - THESE STATIONS ARE NOT NWS STATIONS...THUS NOT UNDER NWS
QUALITY CONTROL.  THEY ALSO DO NOT REPORT WEATHER SUCH
AS PRECIPITATION OR FOG.

IAZ001>003-012>014-020>022-031>034-043>046-181600-
   NORTHWEST IOWA

CITY           SKY/WX    TMP DP  RH WIND       PRES   REMARKS
CARROLL *      SUNNY     73  66  78 SW7       29.93R
CHEROKEE *     SUNNY     71  65  81 NE8       29.95R
DENISON *      SUNNY     73  64  73 W5        29.94S
LE MARS *      SUNNY     72  63  73 VRB7      29.94R
ORANGE CITY *  SUNNY     72  63  73 E6        29.95S
SHELDON *      MOSUNNY   68  59  73 NE6       29.95R
SIOUX CITY     SUNNY     72  64  76 N6        29.93S
SPENCER        CLOUDY    66  60  81 N9        29.97
STORM LAKE *   SUNNY     68  63  83 NE12      29.95R
$$

IAZ055>058-069>071-079>083-090>094-181600-
   SOUTHWEST IOWA

CITY           SKY/WX    TMP DP  RH WIND       PRES   REMARKS
ATLANTIC *     SUNNY     70  64  83 CALM      29.95S
AUDUBON *      SUNNY     75  66  73 SW6       29.94F
CLARINDA *     CLOUDY    70  63  78 CALM      29.95R
COUNCIL BLFS * SUNNY     75  63  64 NW6       29.95S
CRESTON *      CLOUDY    72  63  73 S8        29.96R
HARLAN  *      SUNNY     72  68  88 SW5       29.97S
LAMONI         LGT RAIN  71  62  73 S7        29.95R
RED OAK *      CLOUDY    73  66  78 N8        29.95R
SHENANDOAH *   CLOUDY    72  64  78 N6        29.94R
$$

IAZ047>049-059>061-072>074-084-181600-
   CENTRAL IOWA

CITY           SKY/WX    TMP DP  RH WIND       PRES   REMARKS
AMES           CLOUDY    68  66  93 S3        29.93
ANKENY *       CLOUDY    72  64  78 SE6       29.93R
BOONE *        CLOUDY    70  64  83 SE5       29.93R
CHARITON *     MOSUNNY   68  64  88 SE3       29.93F
DES MOINES     CLOUDY    71  62  73 CALM      29.92
GRINNELL*      CLOUDY    68  63  86 SE3       29.94S
KNOXVILLE *    CLOUDY    68  63  83 SE6       29.92S
MARSHALLTOWN     N/A     65  65 100 CALM      29.91F
NEWTON *       PTSUNNY   66  64  94 SE5       29.93R
PELLA *        CLOUDY    69  64  84 CALM      29.94S
PERRY *          N/A     71  66  85 S7        29.93R
$$

IAZ004>006-015-016-023>025-035-036-181600-
   NORTH CENTRAL IOWA

CITY           SKY/WX    TMP DP  RH WIND       PRES   REMARKS
ALGONA *       CLOUDY    66  63  88 NE7       29.95S
CLARION *      CLOUDY    66  66 100 CALM      29.95S
ESTHERVILLE    CLOUDY    63  61  93 CALM      29.96
FORT DODGE *   MOSUNNY   68  63  83 CALM      29.95S
MASON CITY     CLOUDY    64  62  93 W5        29.96
FOREST CITY *  CLOUDY    64  63  94 NW6       29.96R
WEBSTER CITY * CLOUDY    68  64  88 N6        29.93R
IOWA FALLS *   CLOUDY    66  64  93 CALM      29.95R
$$

IAZ007>011-017>019-026>030-037>042-050>054-066-181600-
   NORTHEAST IOWA

CITY           SKY/WX    TMP DP  RH WIND       PRES   REMARKS
CEDAR RAPIDS   MOSUNNY   71  61  70 CALM      29.93
CHARLES CITY * CLOUDY    64  64 100 N8        29.92F
CLINTON *      MOSUNNY   70  64  81 NW12      29.93
DECORAH *      SUNNY     70  59  68 NW5       29.91R
DUBUQUE        MOSUNNY   69  58  67 N12       29.92
MONTICELLO *   MOSUNNY   72  61  68 NW7       29.92R
OELWEIN *      PTSUNNY   66  63  88 NE7       29.92S
WATERLOO       CLOUDY    65  60  84 NW3       29.92
$$

IAZ064-065-067-068-078-181600-
   EAST CENTRAL IOWA

CITY           SKY/WX    TMP DP  RH WIND       PRES   REMARKS
DAVENPORT      MOSUNNY   72  61  68 NW6       29.94
IOWA CITY      MOSUNNY   72  63  73 NW5       29.94R
MUSCATINE *    MOSUNNY   72  63  73 CALM      29.93S
QUAD CITIES    PTSUNNY   74  60  61 W7        29.92R
$$

IAZ062-063-075>077-085>089-095>099-181600-
   SOUTHEAST IOWA

CITY           SKY/WX    TMP DP  RH WIND       PRES   REMARKS
BURLINGTON     MOSUNNY   73  65  75 SW7       29.96R
FAIRFIELD *    PTSUNNY   72  63  73 CALM      29.95R
FORT MADISON * MOSUNNY   72  64  78 W3        29.97R
KEOKUK *       MOSUNNY   75  64  69 W5G12     29.96R
OSKALOOSA *      N/A     72  64  74 S5        29.95R
OTTUMWA        PTSUNNY   72  64  76 S6        29.95
WASHINGTON *   PTSUNNY   70  66  88 SW3       29.95S
$$

ABBREVIATIONS USED IN REMARKS
   TC - TEMPERATURES IN CELSIUS
  WCI - WIND CHILL INDEX
   HX - HEAT INDEX
  VSB - VISIBILITY
$$





USA.gov is the U.S. government's official web portal to all federal, state and local government web resources and services.